{"data":{"norad_id":58512,"epoch":"2026-09-20T21:52:06.891168Z","epoch_age_seconds":111454,"freshness":"FRESH","line1":"1 58512U 23191E   26263.91119087 -.00000383  00000+0 -43964-5 0  9998","line2":"2 58512  43.0004  81.2928 0001070 268.3008  91.7722 15.27572194155326","mean_motion":15.27572194,"eccentricity":0.000107,"inclination_deg":43.0004,"raan_deg":81.2928,"arg_perigee_deg":268.3008,"mean_anomaly_deg":91.7722,"bstar":-4.3964e-6,"rev_number":15532,"period_min":94.267230423284,"perigee_km":482.33832069808,"apogee_km":483.80661952468,"semimajor_km":6861.2094701114,"source":"CELESTRAK","updated_at":"2026-09-21T09:00:33.907376Z"}}